Torna al catalogo

FALCON HEAVY DEB

AttivoGEO
NORAD 54222·DEBRIS·🇺🇸 United States

Lanciato Nov 1, 2022 da Cape Canaveral Space Force Station

Loading…

TLE

AggiornatoSource: Space-Track

Epoca: Sep 14, 2026, 11:16 UTC

1 54222U 22144D   26257.46994759  .00000012  00000-0  00000+0 0  9995
2 54222   5.9069  62.5138 0004669 213.6523 146.5134  0.98852530 12533

Traccia FALCON HEAVY DEB in tempo reale con AllMySat

Download on the App Store